OBJECT DM, 63002

Orbit data source: Space-Track

You're viewing an Uncataloged Satellite

Recently launched and/or uncataloged satellites may have evolving metadata. Metadata may include but not limited to: Owner, Maufacturer, Bus, Motor, and Mission.

OBJECT DM, 63002 is a satellite in SSO that was launched on Tue, 14 Jan 2025 UTC via an FALCON 9 launch vehicle from the Air Force Western Test Range (AFWTR). Unknown objects in Earth's orbit typically refer to objects detected orbiting the Earth but have not yet been identified or cataloged. These objects could be anything from previously untracked satellites, spent rocket stages, debris from satellite collisions, or even natural meteoroids temporarily captured by Earth's gravity.

Loading next visibility...
Identifier
63002, 2025-009DM
Orbit
SSO
Country
Flag of TBDTBD
Related business
None
Manufacturer
Unknown
Mission
Operational Amateur Technology
Bus & Motor
Unknown
Mass
Unknown
Launch date (UTC)
2025-01-14 (9 months ago)
Launch vehicle
FALCON 9
Launch site
Air Force Western Test Range (AFWTR)
Object type
Unknown
Shape & HBR
Box, 0.1 m
Radar Cross Section
0.004 m², Small (<0.1 m²)

Expand to show TLE details & history
Last TLE update: 7 hours ago

TLE from 7 hours ago
0 OBJECT DM
1 63002U 25009DM  25298.20849440  .00063180  00000-0  17494-2 0  9999
2 63002  97.4301  19.5755 0001360 308.8556  51.2567 15.36753095100858
Epoch: 2025-10-25T05:00Z
TLE epoch observation values (Epoch: 2025-10-25T05:00:13.916Z)
Latitude
0.00003°
Longitude
-89.32483°
Altitude
458.249 km
Speed
7.638 km/s
True Right ascension
01h 18m 18s
True Declination
0° 00' 00"
Sunlit
Object was in full shadow at epoch
Visualization orbit readout
Latitude
Unknown
Longitude
Unknown
Altitude
Unknown
Speed
Unknown
Apparent Right ascension
Unknown
Apparent Declination
Unknown
Sunlit
N/A
Visualization observer readout
Local Sidereal Time
07:33:26
Azimuth
Unknown
Elevation
Unknown
Doppler factor
Unknown
Orbital elements
Apogee altitude
453.592 km
Perigee altitude
451.734 km
Semi-major axis
6,830.8 km
Eccentricity
0.00014
Inclination
97.4301°
RAAN
19.5755°
Arg. of periapsis
308.8556°
True anomaly
51.26886°
Mean anomaly
51.2567°
Eccentric anomaly
51.26278°
Mean motion
3.84446 °/min
Orbital period
93.64 mins
BSTAR
0.0017494
Loading maneuver chart data...
Computing Atmospheric mass density...
Loading historical data...
Loading historical data...
Loading historical data...
Loading historical data...
Loading historical data...
Loading historical data...
Loading historical data...

Documentation

Showing up to 5 results
|